EETNEVRA

Guest
Details From EETN - TALLINN
To EVRA - Riga Intl
Flight Number -
Tags generated
Created
Modified
Stats Distance 152 nm / 281 km
Max Altitude 12,700 ft / 3,871 m
Waypoints 3
Social Downloads 0
Likes 0
Share VATSIM

Download

Looking for another format? Having issues loading an existing format? Contact us
Advertisement - Login to hide

Notes

Basic altitude profile: - Ascent Rate: 2500ft/min - Ascent Speed: 250kts - Cruise Altitude: 35000ft - Cruise Speed: 420kts - Descent Rate: 1500ft/min - Descent Speed: 250kts

Route

EETN SOKVA EVRA

ID Type Via Altitude Latitude Longitude Leg Dist Tot Dist Heading (true) Name
O EETN APT - 0 ft / 0 m 59.41326˚ 24.83280˚ - 0 nm - TALLINN
SOKVA FIX - 12,700 ft / 3,871 m 57.90000˚ 24.29944˚ 92 nm 92 nm 191° / 190° -
O EVRA APT - 0 ft / 0 m 56.92366˚ 23.97119˚ 59 nm 151 nm 190° / 190° Riga Intl

Altitude Profile

Advertisement - Login to hide

EETN

Details ICAO EETN (TLL)
Name TALLINN
Region Estonia
Timezone Europe/Tallinn (UTC+3.0)
Stats Elevation 131 ft / 40 m (AMSL)
Location 59.413257° 24.832803°
Runways 1
Magnetic Variation 8.705° E

METAR

EETN 272350Z 08003KT CAVOK 09/04 Q1031

Decode

TAF

TAF EETN 272307Z 2800/2824 07007KT CAVOK= TAF KNGU 2723/2823 22010KT 9999 VCTS SCT020CB BKN120 QNH2987INS TEMPO 2723/2803 VRB15G25KT 4800 TSRA BKN015CB OVC030 FM280300 20008KT 9999 VCSH SCT050 BKN120 BKN180 QNH2983INS T22/2809Z T29/2820Z FN00172

Decode

Departure Runways

ID Width Length Bearing (true) Bearing (mag) Surface Threshold Offset Overrun Length
08 148 ft / 45 m 10,023 ft / 3,055 m 90.24° 81.54° Asphalt 820 ft / 250 m 0 ft / 0 m
26 148 ft / 45 m 10,023 ft / 3,055 m 270.28° 261.58° Asphalt 0 ft / 0 m 184 ft / 56 m

EVRA

Details ICAO EVRA (RIX)
Name Riga Intl
Region Latvia
Timezone Europe/Riga (UTC+3.0)
Stats Elevation 34 ft / 10 m (AMSL)
Location 56.923662° 23.971193°
Runways 1
Magnetic Variation 7.721° E

METAR

EVRA 272350Z 07006KT CAVOK 13/06 Q1028 NOSIG

Decode

TAF

TAF TAF EVRA 272000Z 2721/2821 07006KT CAVOK TEMPO 2722/2804 3000 BR

Decode

Destination Runways

ID Width Length Bearing (true) Bearing (mag) Surface Threshold Offset Overrun Length
18 148 ft / 45 m 8,358 ft / 2,548 m 185.15° 177.43° Asphalt 0 ft / 0 m 170 ft / 52 m
36 148 ft / 45 m 8,358 ft / 2,548 m 5.14° 357.42° Asphalt 0 ft / 0 m 170 ft / 52 m

Approach Navaids

Runway Type Ident Frequency Range Bearing (true) Bearing (mag) Slope Elevation
18 Localiser IAO 110.30 MHz 18 nm / 33 km 185.14° 177.42° - 34 ft / 10 m (AMSL)
18 Glidescope IAO 110.30 MHz 10 nm / 19 km 185.15° 177.42° 3.00° 34 ft / 10 m (AMSL)
18 DME IAO 110.30 MHz 18 nm / 33 km - - - 0 ft / 0 m (AMSL)
36 Localiser IRP 110.30 MHz 18 nm / 33 km 5.14° 357.42° - 34 ft / 10 m (AMSL)
36 Glidescope IRP 110.30 MHz 10 nm / 19 km 5.14° 357.42° 3.00° 34 ft / 10 m (AMSL)
36 DME IRP 110.30 MHz 18 nm / 33 km - - - 0 ft / 0 m (AMSL)

Popular Alternatives